[[{"header":{"parameterUnit":"m.s-1","parameterCategory":1,"la1":30.2991,"la2":30.254,"lo1":-89.0895,"lo2":-89.0444,"dy":0.0017,"dx":0.0017,"nx":28,"ny":28,"refTime":"2023-04-20T21:00:00:Z","depth":0,"parameterNumber":2,"parameterNumberName":"U-component_of_WINDS"},"data":[0,0,0,0,0,0,0,0,0,0,0,0,0,0,0,0,0,0,0,0,0,0,0,0,0,0,0,0,0,0,0,0,0,0,0,0,0,0,0,0,0,0,0,0,0,0,0,0,0,0,0,0,0,0,0,0,0,0,-3.3544,-3.3543,0,-3.3423,-3.3422,-3.342,-3.3309,-3.3307,-3.3306,-3.3305,-3.3179,-3.3177,-3.3175,0,0,0,0,0,0,0,0,0,0,0,0,0,-3.3678,-3.3676,-3.3544,-3.3543,-3.3541,-3.3423,-3.3422,-3.342,-3.3309,-3.3307,-3.3305,-3.3304,-3.318,-3.3178,-3.3175,0,0,0,0,0,0,0,0,0,0,0,0,0,-3.3595,-3.3676,-3.3544,-3.3471,-3.3464,-3.3424,-3.3422,-3.342,-3.3309,-3.3307,-3.3305,-3.3303,-3.3181,-3.3178,-3.3175,-3.3197,0,0,-3.3165,-3.3164,0,0,0,0,0,0,0,0,-3.36,-3.359,-3.3484,-3.3476,-3.3468,-3.3379,-3.3423,-3.3345,-3.331,-3.3368,-3.3304,-3.3302,-3.3247,-3.3239,-3.322,-3.3191,-3.3186,-3.3165,-3.3163,-3.3162,-3.3161,0,0,0,0,0,0,0,-3.3606,-3.3595,-3.3496,-3.3482,-3.3473,-3.3445,-3.3431,-3.3408,-3.332,-3.3363,-3.3354,-3.3341,-3.3243,-3.3224,-3.3217,-3.3184,-3.3165,-3.3162,-3.3161,-3.3159,-3.3167,-3.3168,0,0,0,0,0,0,-3.3623,-3.36,-3.35,-3.3492,-3.353,-3.3444,-3.3428,-3.3409,-3.332,-3.3305,-3.3343,-3.3337,-3.323,-3.322,-3.3212,-3.3231,-3.3162,-3.3159,-3.3157,-3.3165,-3.3167,-3.3169,0,0,0,0,0,0,-3.3626,-3.3615,-3.3505,-3.3544,-3.3528,-3.3444,-3.3424,-3.3408,-3.3389,-3.3306,-3.329,-3.334,-3.3228,-3.3216,-3.3201,-3.3225,-3.3158,-3.3155,-3.3162,-3.3165,-3.3168,-3.3271,0,0,0,0,0,0,-3.3631,-3.3617,-3.3624,-3.3545,-3.3526,-3.3497,-3.3425,-3.3407,-3.3384,-3.3374,-3.3299,-3.3284,-3.3225,-3.3207,-3.3199,-3.322,-3.3152,-3.316,-3.3164,-3.3167,-3.3265,-3.3277,-3.3287,0,0,0,0,0,-3.3636,-3.3658,-3.3625,-3.3614,-3.3534,-3.3498,-3.3488,-3.342,-3.3387,-3.3393,-3.334,-3.3286,-3.3225,-3.3206,-3.3196,-3.3217,-3.3158,-3.3162,-3.3167,-3.326,-3.3275,-3.3287,0,0,0,0,0,0,-3.3741,-3.3646,-3.3609,-3.3606,-3.3561,-3.348,-3.3486,-3.3438,-3.3401,-3.3394,-3.3311,-3.3295,-3.329,-3.3252,-3.3233,-3.3234,-3.3184,-3.3187,-3.3258,-3.3271,-3.3283,-3.3291,-3.315,0,0,0,0,0,-3.3764,-3.3743,-3.3661,-3.3667,-3.3646,-3.3571,-3.3552,-3.3505,-3.3455,-3.3435,-3.3381,-3.3334,-3.3304,-3.3286,-3.3254,-3.326,-3.3241,-3.3269,-3.3281,-3.329,-3.3293,-3.3293,-3.3304,-3.3184,-3.3184,-3.3184,0,0,-3.3811,-3.3756,-3.3748,-3.3687,-3.3646,-3.3626,-3.3555,-3.3537,-3.3522,-3.3432,-3.3415,-3.3374,-3.3317,-3.3313,-3.3308,-3.3281,-3.3323,-3.3296,-3.3304,-3.3302,-3.3299,-3.3311,-3.3321,-3.3187,-3.3187,-3.3186,0,0,-3.3886,-3.3843,-3.3842,-3.3804,-3.3745,-3.3694,-3.3695,-3.3621,-3.359,-3.3572,-3.3504,-3.3485,-3.3435,-3.3397,-3.3371,-3.3435,-3.3384,-3.3427,-3.3485,-3.3486,-3.3495,-3.3503,-3.3525,-3.3534,-3.343,-3.343,-3.3431,0,-3.3951,-3.3919,-3.3848,-3.3835,-3.3809,-3.3729,-3.3728,-3.3694,-3.3627,-3.3612,-3.3583,-3.3519,-3.3475,-3.346,-3.3476,-3.3458,-3.3456,-3.3434,-3.35,-3.3507,-3.3514,-3.3533,-3.3542,-3.3436,-3.3435,-3.3435,-3.3434,0,-3.4002,-3.3981,-3.3988,-3.3926,-3.3902,-3.3895,-3.3823,-3.3807,-3.3763,-3.3716,-3.3698,-3.3643,-3.3598,-3.3592,-3.3547,-3.3572,-3.3557,-3.3515,-3.3463,-3.3532,-3.3549,-3.3556,-3.3444,-3.3442,-3.344,-3.3439,0,0,-3.4137,-3.4038,-3.4042,-3.4013,-3.3942,-3.3924,-3.3914,-3.3871,-3.3859,-3.3816,-3.3805,-3.3766,-3.3727,-3.3698,-3.3649,-3.3651,-3.3704,-3.3609,-3.3606,-3.3628,-3.3727,-3.3758,-3.3767,-3.3671,-3.3672,-3.3673,-3.3731,0,-3.42,-3.4176,-3.4113,-3.4109,-3.4089,-3.4013,-3.4004,-3.396,-3.3917,-3.3893,-3.3845,-3.3818,-3.3769,-3.3751,-3.375,-3.3698,-3.3723,-3.3693,-3.3659,-3.3659,-3.3674,-3.3776,-3.3808,-3.3866,-3.3738,-3.3739,-3.374,0,-3.4268,-3.4231,-3.4225,-3.4156,-3.4145,-3.4138,-3.4094,-3.4073,-3.4022,-3.399,-3.3959,-3.3905,-3.389,-3.3844,-3.3822,-3.3804,-3.3787,-3.376,-3.376,-3.3753,-3.3702,-3.3771,-3.3882,-3.3891,-3.375,-3.3749,-3.3748,0,-3.4367,-3.4315,-3.4305,-3.4283,-3.4202,-3.4199,-3.4165,-3.4112,-3.4091,-3.4053,-3.4038,-3.3999,-3.3977,-3.3948,-3.3885,-3.3857,-3.3871,-3.3819,-3.3843,-3.3845,-3.3847,-3.3848,-3.3957,-3.384,-3.3839,-3.3839,-3.3839,0,-3.4442,-3.4441,-3.4348,-3.4341,-3.4339,-3.4267,-3.4266,-3.4225,-3.4179,-3.4163,-3.4096,-3.4083,-3.4001,-3.3979,-3.393,-3.3919,-3.391,-3.3884,-3.387,-3.3889,-3.3892,-3.3875,-3.3869,-3.3841,-3.3841,-3.3841,-3.384,0,-3.455,-3.4488,-3.4471,-3.4397,-3.4379,-3.438,-3.4316,-3.4307,-3.4261,-3.4242,-3.4233,-3.416,-3.413,-3.4065,-3.4018,-3.3985,-3.3986,-3.3963,-3.4003,-3.3995,-3.4022,-3.402,-3.4122,-3.4132,-3.4011,-3.4012,-3.4013,0,-3.4601,-3.4599,-3.4525,-3.451,-3.4479,-3.4456,-3.4434,-3.4364,-3.4343,-3.4286,-3.4284,-3.4249,-3.4217,-3.4173,-3.4116,-3.4079,-3.4054,-3.4093,-3.4048,-3.4067,-3.4053,-3.4053,-3.4053,-3.4102,-3.4104,-3.4105,-3.4106,0,-3.4698,-3.4668,-3.4639,-3.46,-3.4576,-3.4542,-3.4503,-3.4495,-3.4416,-3.4397,-3.4366,-3.4342,-3.4294,-3.426,-3.4215,-3.418,-3.413,-3.4121,-3.4124,-3.4142,-3.4165,-3.4152,-3.4029,-3.4118,-3.4117,-3.4116,-3.4115,-3.4115,-3.4778,-3.4773,-3.472,-3.469,-3.4655,-3.4621,-3.4609,-3.4562,-3.4535,-3.449,-3.4451,-3.4424,-3.4373,-3.4308,-3.4277,-3.4255,-3.423,-3.4235,-3.4236,-3.4238,-3.4246,-3.4171,-3.4246,-3.4246,-3.4246,-3.4245,-3.4245,0,-3.4871,-3.4834,-3.4808,-3.4757,-3.4734,-3.469,-3.4646,-3.4629,-3.4606,-3.4564,-3.4534,-3.4499,-3.4466,-3.4407,-3.4369,-3.4363,-3.4339,-3.4355,-3.4354,-3.4347,-3.427,-3.4271,-3.4375,-3.4375,-3.4375,-3.4375,-3.4375,-3.4375,-3.4917,-3.4905,-3.4869,-3.4839,-3.4802,-3.4775,-3.4753,-3.4722,-3.4688,-3.4652,-3.4624,-3.4586,-3.4537,-3.4495,-3.4463,-3.4447,-3.4435,-3.4459,-3.4435,-3.4364,-3.4352,-3.434,-3.434,-3.4457,-3.4458,-3.4513,-3.4513,-3.4514]},{"header":{"parameterUnit":"m.s-1","parameterCategory":1,"la1":30.2991,"la2":30.254,"lo1":-89.0895,"lo2":-89.0444,"dy":0.0017,"dx":0.0017,"nx":28,"ny":28,"refTime":"2023-04-20T21:00:00:Z","depth":0,"parameterNumber":3,"parameterNumberName":"V-component_of_WINDS"},"data":[0,0,0,0,0,0,0,0,0,0,0,0,0,0,0,0,0,0,0,0,0,0,0,0,0,0,0,0,0,0,0,0,0,0,0,0,0,0,0,0,0,0,0,0,0,0,0,0,0,0,0,0,0,0,0,0,0,0,3.7403,3.7403,0,3.7433,3.7434,3.7434,3.7403,3.7402,3.7401,3.74,3.7428,3.7429,3.7431,0,0,0,0,0,0,0,0,0,0,0,0,0,3.7318,3.732,3.7403,3.7403,3.7404,3.7433,3.7434,3.7434,3.7403,3.7402,3.7401,3.7399,3.7427,3.7429,3.7431,0,0,0,0,0,0,0,0,0,0,0,0,0,3.7352,3.732,3.7403,3.7392,3.7392,3.7433,3.7434,3.7434,3.7404,3.7402,3.74,3.7399,3.7426,3.7429,3.7432,3.7484,0,0,3.744,3.7441,0,0,0,0,0,0,0,0,3.735,3.7355,3.7393,3.7393,3.7392,3.7413,3.7414,3.7451,3.7404,3.7399,3.74,3.7398,3.7424,3.7427,3.7436,3.7486,3.7487,3.744,3.7442,3.7443,3.7444,0,0,0,0,0,0,0,3.7348,3.7354,3.7415,3.7394,3.7393,3.7386,3.7388,3.7421,3.7421,3.7399,3.7397,3.7401,3.7423,3.7434,3.7437,3.7487,3.744,3.7443,3.7445,3.7446,3.7584,3.7586,0,0,0,0,0,0,3.7347,3.7352,3.7414,3.7416,3.7367,3.7389,3.7392,3.7408,3.7421,3.7421,3.7403,3.74,3.743,3.7433,3.7437,3.7502,3.7443,3.7446,3.7447,3.7582,3.7585,3.7587,0,0,0,0,0,0,3.7345,3.7353,3.7413,3.7383,3.739,3.7392,3.741,3.7409,3.742,3.7423,3.7423,3.7414,3.7429,3.7434,3.7474,3.7502,3.7447,3.745,3.758,3.7583,3.7586,3.763,0,0,0,0,0,0,3.7343,3.7352,3.7372,3.7384,3.7392,3.7449,3.7412,3.7411,3.7425,3.7421,3.7433,3.7433,3.7428,3.747,3.7477,3.7505,3.7452,3.7577,3.7581,3.7585,3.7626,3.7634,3.7641,0,0,0,0,0,3.734,3.7382,3.7374,3.7381,3.7417,3.7451,3.7455,3.7448,3.7427,3.7448,3.7451,3.7433,3.7498,3.7474,3.7482,3.7511,3.7576,3.758,3.7585,3.7622,3.7632,3.7641,0,0,0,0,0,0,3.7372,3.7383,3.7374,3.7421,3.7436,3.7445,3.747,3.7459,3.7478,3.7474,3.7464,3.7467,3.751,3.7514,3.7487,3.7564,3.7533,3.754,3.756,3.7569,3.7577,3.7574,3.7454,0,0,0,0,0,3.7385,3.7411,3.742,3.7461,3.7469,3.7469,3.7483,3.7477,3.749,3.7496,3.7501,3.7515,3.7538,3.7554,3.7576,3.7627,3.7629,3.7651,3.7658,3.7665,3.767,3.7699,3.7709,3.7602,3.7602,3.7602,0,0,3.741,3.742,3.7437,3.7467,3.7478,3.7506,3.7474,3.7503,3.7524,3.75,3.7539,3.7544,3.7558,3.7605,3.7625,3.761,3.7701,3.767,3.7675,3.7677,3.7705,3.7715,3.7724,3.7605,3.7604,3.7604,0,0,3.7473,3.7482,3.7519,3.7531,3.7547,3.7548,3.7557,3.7569,3.7572,3.7612,3.7595,3.7619,3.7659,3.7671,3.7682,3.7753,3.7738,3.776,3.7799,3.7828,3.7836,3.7844,3.787,3.788,3.7765,3.7765,3.7766,0,3.7502,3.7544,3.7538,3.7571,3.7586,3.7567,3.7604,3.7615,3.7638,3.7648,3.7631,3.7684,3.7692,3.7742,3.776,3.7769,3.7779,3.7758,3.7836,3.7843,3.785,3.7875,3.7885,3.7768,3.7768,3.7768,3.7767,0,3.7581,3.7611,3.7638,3.7663,3.7681,3.7715,3.7715,3.7733,3.7726,3.7729,3.777,3.778,3.7804,3.7816,3.7808,3.7866,3.7856,3.7838,3.7806,3.7863,3.7887,3.7896,3.7772,3.7771,3.777,3.777,0,0,3.7662,3.7686,3.7696,3.7708,3.7727,3.7749,3.7784,3.781,3.7826,3.7843,3.7872,3.7909,3.7893,3.7906,3.79,3.7925,3.7982,3.7904,3.7904,3.7919,3.8048,3.8062,3.8073,3.7973,3.7975,3.7976,3.8047,0,3.7725,3.7787,3.7784,3.7841,3.7869,3.7854,3.7884,3.7899,3.7903,3.7927,3.793,3.7957,3.7934,3.7942,3.7966,3.797,3.8008,3.7965,3.8,3.8001,3.7998,3.8085,3.81,3.8166,3.8056,3.8058,3.8059,0,3.7807,3.783,3.7891,3.7908,3.792,3.7947,3.7972,3.7995,3.8012,3.8014,3.803,3.8021,3.8056,3.8025,3.8074,3.8045,3.8059,3.8063,3.8066,3.8069,3.8034,3.8091,3.8187,3.8197,3.8073,3.8072,3.8071,0,3.7862,3.7907,3.795,3.7961,3.7982,3.8002,3.8011,3.8027,3.8043,3.8065,3.8076,3.8101,3.8114,3.8134,3.8132,3.8109,3.8182,3.815,3.8184,3.8185,3.82,3.8199,3.83,3.8209,3.8209,3.8208,3.8208,0,3.7933,3.7971,3.7975,3.8002,3.8044,3.8041,3.8083,3.8091,3.8105,3.8133,3.812,3.8146,3.8142,3.8168,3.8167,3.8209,3.8214,3.8216,3.8216,3.8218,3.8218,3.8227,3.8223,3.8211,3.821,3.821,3.8209,0,3.8001,3.8005,3.8051,3.8069,3.8074,3.8105,3.8119,3.8145,3.8148,3.8184,3.8192,3.8197,3.8228,3.8228,3.8262,3.8261,3.8313,3.8307,3.8308,3.8307,3.8342,3.8339,3.8452,3.8467,3.8366,3.8367,3.8367,0,3.8047,3.8076,3.8098,3.8117,3.8128,3.8157,3.8175,3.8174,3.8193,3.8217,3.8239,3.8269,3.8293,3.8342,3.8349,3.8376,3.837,3.8408,3.8374,3.8376,3.8372,3.8371,3.8374,3.8415,3.8416,3.8417,3.8418,0,3.8128,3.8129,3.8156,3.8185,3.8207,3.8229,3.8249,3.8265,3.8266,3.8288,3.8321,3.8339,3.8376,3.8406,3.8433,3.8441,3.843,3.8429,3.8438,3.8441,3.8441,3.8443,3.8327,3.8426,3.8425,3.8424,3.8424,3.8424,3.8186,3.8213,3.8233,3.8265,3.8281,3.8301,3.8326,3.8335,3.8362,3.8393,3.839,3.8426,3.8445,3.8479,3.8491,3.8519,3.8506,3.8519,3.8523,3.8526,3.8531,3.8437,3.8524,3.8524,3.8523,3.8523,3.8523,0,3.8268,3.8281,3.831,3.8341,3.8366,3.8355,3.8378,3.8399,3.8432,3.845,3.8475,3.8513,3.8543,3.8553,3.8582,3.8603,3.8599,3.8611,3.8609,3.8612,3.854,3.853,3.8614,3.8614,3.8614,3.8614,3.8614,3.8614,3.8313,3.8359,3.8363,3.8416,3.8429,3.8466,3.848,3.8499,3.8514,3.8558,3.8584,3.8591,3.8607,3.8637,3.8665,3.8667,3.8678,3.8693,3.8693,3.8626,3.8617,3.8608,3.8598,3.8695,3.8695,3.8763,3.8763,3.8764]}]]